Lumberton, NC

8:07 PM EST on February 24, 2017 (GMT -0500)
Lumberton Municipal

Weather History for KLBT - April, 2013

Change the Weather History Date:

Tuesday, April 9, 2013

  Actual Average Record
Temperature  
Mean Temperature 66 °F 60 °F  
Max Temperature 82 °F 73 °F 87 °F (2015)
Min Temperature 50 °F 48 °F 28 °F (2007)
Degree Days  
Heating Degree Days 0 6  
Month to date heating degree days 88 62  
Since 1 July heating degree days 2698 2638  
Cooling Degree Days 1 2  
Month to date cooling degree days 1 10  
Year to date cooling degree days 6 23  
Growing Degree Days 16 (Base 50)    
Moisture  
Dew Point 57 °F    
Average Humidity 74    
Maximum Humidity 100    
Minimum Humidity 48    
Precipitation  
Precipitation 0.00 in 0.10 in 0.89 in (2003)
Month to date precipitation 1.13 0.96  
Year to date precipitation 8.58 10.16  
Sea Level Pressure  
Sea Level Pressure 30.16 in    
Wind  
Wind Speed 5 mph (SSW)    
Max Wind Speed 14 mph    
Max Gust Speed 17 mph    
Visibility 6 miles    
Events Fog    
T = Trace of Precipitation, MM = Missing Value Source: NWS Daily Summary

Daily Weather History Graph

Daily Weather History Graph

Search for Another Location

Airport or City:

Trip Planner

Search our weather history database for the weather conditions in past years. The results will help you decide how hot, cold, wet, or windy it might be!

Date:

Astronomy

Apr. 09, 2013 Rise Set
Actual Time 6:52 AM EDT 7:43 PM EDT
Civil Twilight 6:26 AM EDT 8:09 PM EDT
Nautical Twilight 5:56 AM EDT 8:39 PM EDT
Astronomical Twilight 5:25 AM EDT 9:11 PM EDT
Moon 6:12 AM EDT (4/9) 7:17 PM EDT (4/9)
Length of Visible Light 13h 42m
Length of Day
12h 51m
Waning Crescent, 1% of the Moon is Illuminated
Apr 9
Waning Crescent
Apr 10
New
Apr 18
First Quarter
Apr 25
Full
May 2
Last Quarter

Hourly Weather History & Observations

Time (EDT) Temp. Heat Index Dew Point Humidity Pressure Visibility Wind Dir Wind Speed Gust Speed Precip Events Conditions
12:54 AM 61.0 °F - 57.0 °F 87% 30.15 in 10.0 mi South 3.5 mph - N/A   Clear
1:54 AM 61.0 °F - 57.9 °F 90% 30.14 in 10.0 mi South 3.5 mph - N/A   Clear
2:54 AM 61.0 °F - 59.0 °F 93% 30.12 in 10.0 mi SSW 3.5 mph - N/A   Clear
3:54 AM 57.9 °F - 57.0 °F 97% 30.13 in 9.0 mi SSW 3.5 mph - N/A   Clear
4:47 AM 53.6 °F - 53.6 °F 100% 30.14 in 1.5 mi Calm Calm - N/A   Clear
4:51 AM 53.6 °F - 53.6 °F 100% 30.15 in 0.5 mi Calm Calm - N/A Fog Fog
4:54 AM 53.1 °F - 53.1 °F 100% 30.14 in 0.2 mi Calm Calm - N/A Fog Fog
5:20 AM 53.6 °F - 53.6 °F 100% 30.15 in 0.2 mi Calm Calm - N/A Fog Fog
5:54 AM 51.1 °F - 50.0 °F 96% 30.16 in 0.2 mi Calm Calm - N/A Fog Fog
6:05 AM 51.8 °F - 51.8 °F 100% 30.16 in 0.8 mi Calm Calm - N/A   Mist
6:07 AM 51.8 °F - 51.8 °F 100% 30.16 in 1.8 mi Calm Calm - N/A   Overcast
6:09 AM 51.8 °F - 51.8 °F 100% 30.16 in 4.0 mi Calm Calm - N/A   Overcast
6:18 AM 53.6 °F - 51.8 °F 94% 30.17 in 1.8 mi ESE 3.5 mph - N/A   Overcast
6:20 AM 53.6 °F - 51.8 °F 94% 30.17 in 1.0 mi ESE 3.5 mph - N/A   Mist
6:31 AM 51.8 °F - 51.8 °F 100% 30.17 in 2.0 mi Calm Calm - N/A   Overcast
6:39 AM 51.8 °F - 51.8 °F 100% 30.18 in 1.2 mi Calm Calm - N/A   Overcast
6:46 AM 51.8 °F - 51.8 °F 100% 30.18 in 0.2 mi Calm Calm - N/A Fog Fog
6:54 AM 51.1 °F - 51.1 °F 100% 30.18 in 0.2 mi Calm Calm - N/A Fog Fog
7:54 AM 55.0 °F - 55.0 °F 100% 30.20 in 0.2 mi Calm Calm - N/A Fog Fog
8:25 AM 59.0 °F - 59.0 °F 100% 30.21 in 1.2 mi SSE 3.5 mph - N/A   Overcast
8:30 AM 59.0 °F - 59.0 °F 100% 30.21 in 2.0 mi Calm Calm - N/A   Overcast
8:43 AM 60.8 °F - 60.8 °F 100% 30.21 in 4.0 mi SSW 3.5 mph - N/A   Scattered Clouds
8:54 AM 63.0 °F - 62.1 °F 97% 30.21 in 8.0 mi SW 3.5 mph - N/A   Partly Cloudy
9:54 AM 70.0 °F - 63.0 °F 78% 30.22 in 10.0 mi West 6.9 mph - N/A   Clear
10:54 AM 73.0 °F - 62.1 °F 68% 30.22 in 10.0 mi WSW 12.7 mph 16.1 mph N/A   Clear
11:54 AM 75.0 °F - 62.1 °F 64% 30.21 in 10.0 mi WSW 9.2 mph - N/A   Clear
12:54 PM 77.0 °F - 63.0 °F 62% 30.19 in 10.0 mi WSW 4.6 mph - N/A   Clear
1:54 PM 80.1 °F 81.2 °F 62.1 °F 54% 30.17 in 10.0 mi West 9.2 mph - N/A   Clear
2:54 PM 81.0 °F 81.9 °F 62.1 °F 52% 30.14 in 10.0 mi South 4.6 mph - N/A   Scattered Clouds
3:54 PM 81.0 °F 81.6 °F 60.1 °F 49% 30.12 in 10.0 mi SW 10.4 mph - N/A   Partly Cloudy
4:54 PM 81.0 °F 81.6 °F 60.1 °F 49% 30.10 in 10.0 mi WSW 10.4 mph - N/A   Scattered Clouds
5:54 PM 79.0 °F - 59.0 °F 50% 30.10 in 10.0 mi SSW 8.1 mph - N/A   Scattered Clouds
6:54 PM 78.1 °F - 57.9 °F 50% 30.10 in 10.0 mi SW 4.6 mph - N/A   Clear
7:54 PM 73.0 °F - 57.9 °F 59% 30.11 in 10.0 mi SSW 4.6 mph - N/A   Clear
8:54 PM 70.0 °F - 57.9 °F 65% 30.13 in 10.0 mi South 3.5 mph - N/A   Clear
9:54 PM 68.0 °F - 57.0 °F 68% 30.14 in 10.0 mi South 4.6 mph - N/A   Clear
10:54 PM 68.0 °F - 57.0 °F 68% 30.13 in 10.0 mi South 6.9 mph - N/A   Clear
11:54 PM 66.9 °F - 57.9 °F 73% 30.12 in 10.0 mi SSW 6.9 mph - N/A   Clear